Regional Weather Roundup
Issued by NWS

Home | Current Version | Previous Version | Text Only | Print | Product List | Glossary On
Versions: 1 2 3 4 5 6 7 8 9 10 11 12 13 14 15 16 17 18 19 20 21 22 23 24 25 26 27 28 29 30 31 32 33 34 35 36 37 38 39 40 41 42 43 44 45 46 47 48 49 50
000
ASUS44 KOUN 200810
RWROK

WEATHER ROUNDUP FOR OKLAHOMA
NATIONAL WEATHER SERVICE NORMAN OK
300 AM CDT SUN APR 20 2014

NOTE: "FAIR" INDICATES FEW OR NO CLOUDS BELOW 12,000 FEET WITH NO
      SIGNIFICANT WEATHER AND/OR OBSTRUCTIONS TO VISIBILITY.

OKZ001>007-009>012-014-015-017-200900-
NORTHWEST OKLAHOMA AND THE PANHANDLE

CITY           SKY/WX    TMP DP  RH WIND       PRES   REMARKS
GAGE           PTCLDY    61  49  64 S15       30.03F
ENID/VANCE AFB PTCLDY    59  55  86 S10       30.06F
ENID/WOODRING  PTCLDY    55  50  82 S7        30.06F
$$

OKZ016-021>023-033>039-044-045-200900-
SOUTHWEST OKLAHOMA

CITY           SKY/WX    TMP DP  RH WIND       PRES   REMARKS
LAWTON/REGL    MOCLDY    58  51  78 E6        30.07F
LAWTON/FT SILL MOCLDY    58  52  78 SE5       30.06F
FREDERICK      MOCLDY    59  52  77 E7        30.02F
CLINTON        PTCLDY    60  50  69 S13       30.07F
HOBART         PTCLDY    62  51  67 S15       30.06F
ALTUS AFB      PTCLDY    60  52  76 SE8       30.05F
$$

OKZ018>020-024>031-200900-
CENTRAL OKLAHOMA

CITY           SKY/WX    TMP DP  RH WIND       PRES   REMARKS
OKLAHOMA CITY  MOCLDY    56  49  77 S8        30.10F
OKC/WILEY POST CLEAR     61  48  62 S13       30.09F
OKC/TINKER AFB CLEAR     59  51  74 S10       30.10S
STILLWATER     MOCLDY    60  50  69 S8        30.09S
GUTHRIE        CLEAR     62  50  64 S9        30.09S
$$

OKZ008-013-054>072-200900-
NORTHEAST OKLAHOMA

CITY           SKY/WX    TMP DP  RH WIND       PRES   REMARKS
TULSA          MOCLDY    61  51  70 SE6       30.10S
TULSA/JONES    PTCLDY    61  50  67 S5        30.11S
PONCA CITY     MOCLDY    65  49  56 S8        30.08F
BARTLESVILLE   MOCLDY    52  48  86 CALM      30.11S
MUSKOGEE       CLEAR     56  50  80 SE6       30.13F
$$

OKZ032-040>043-046>053-073>077-200900-
SOUTH CENTRAL/SOUTHEAST OKLAHOMA

CITY           SKY/WX    TMP DP  RH WIND       PRES   REMARKS
ARDMORE/DWNTWN   N/A     55  52  88 CALM      30.10F
MCALESTER      PTCLDY    60  49  66 SE5       30.13S
$$




USA.gov is the U.S. government's official web portal to all federal, state and local government web resources and services.